Volver al catálogo

ONEWEB-0431

ActivoComunicacionesPO
NORAD 51630·PAYLOAD·🇬🇧 United Kingdom

Lanzado Feb 10, 2022 desde Guiana Space Centre

Loading…

Próximos Pases (próximas 24 horas)

TLE

ActualizadoSource: CelesTrak SupGP

Época: Sep 14, 2026, 21:03 UTC

1 51630C 22012J   26257.87757359 -.00000206  00000+0 -58975-3 0  2578
2 51630  87.8920  18.4098 0001308  84.7680  27.7722 13.10380485    17

Sigue ONEWEB-0431 en tiempo real con AllMySat

Download on the App Store